PDT,Max TemperatureF,Mean TemperatureF,Min TemperatureF,Max Dew PointF,MeanDew PointF,Min DewpointF,Max Humidity, Mean Humidity, Min Humidity, Max Sea Level PressureIn, Mean Sea Level PressureIn, Min Sea Level PressureIn, Max VisibilityMiles, Mean VisibilityMiles, Min VisibilityMiles, Max Wind SpeedMPH, Mean Wind SpeedMPH, Max Gust SpeedMPH,PrecipitationIn, CloudCover, Events, WindDirDegrees
2014-4-1,59,47,35,38,35,28,92,63,33,29.93,29.82,29.77,10,9,4,15,4,19,T,6,,354
2014-4-2,63,51,38,39,36,31,92,61,30,30.07,30.01,29.94,10,10,10,10,3,15,T,4,,308
2014-4-3,61,51,40,44,39,37,93,68,42,30.03,30.00,29.94,10,10,5,24,4,30,0.18,6,Rain,119
2014-4-4,61,53,45,44,41,37,93,69,44,30.06,30.00,29.94,10,10,6,10,4,14,0.07,7,Rain,36
2014-4-5,59,53,46,49,43,37,86,74,61,30.25,30.15,30.06,10,10,9,9,3,12,0.02,8,Rain,355
2014-4-6,70,60,50,49,45,39,89,61,33,30.34,30.28,30.24,10,10,10,9,3,11,0.00,5,,350
2014-4-7,80,61,42,47,41,33,83,51,18,30.29,30.20,30.08,10,10,10,13,3,18,0.00,0,,294
2014-4-8,80,63,46,48,43,34,86,53,19,30.17,30.10,30.01,10,10,2,16,4,20,0.00,0,,326
2014-4-9,76,61,45,48,44,39,92,60,27,30.14,30.08,30.00,10,10,10,17,5,22,0.00,1,,356
2014-4-10,77,63,49,49,43,33,80,51,21,30.14,30.06,29.94,10,10,10,10,5,14,0.00,4,,360
2014-4-11,80,62,43,45,42,40,83,56,28,30.05,29.96,29.85,10,10,10,14,3,17,0.00,0,,335
2014-4-12,76,60,43,43,33,11,83,46,9,30.04,29.95,29.89,10,10,10,17,4,24,0.00,0,,320
2014-4-13,79,59,38,38,33,26,79,47,15,30.16,30.09,30.02,10,10,10,14,4,20,0.00,0,,354
2014-4-14,78,60,42,44,37,30,70,45,19,30.14,30.09,30.02,10,10,10,13,5,15,0.00,0,,22
2014-4-15,68,57,45,41,36,29,71,49,27,30.22,30.14,30.05,10,10,10,14,5,17,0.00,4,,338
2014-4-16,72,56,40,43,37,28,82,54,25,30.15,30.06,29.96,10,10,10,10,3,13,0.00,1,,355
2014-4-17,61,53,44,49,44,40,89,70,51,30.03,29.96,29.89,10,10,4,17,3,22,0.09,6,Rain,355
2014-4-18,71,58,45,46,42,34,93,60,26,30.07,30.00,29.88,10,10,6,9,3,12,0.00,4,,351
2014-4-19,67,54,40,46,39,31,83,56,28,30.24,30.04,29.88,10,10,9,23,6,29,0.00,2,,325
2014-4-20,75,57,38,41,37,29,92,56,19,30.31,30.19,30.07,10,10,10,9,2,12,0.00,0,,1
2014-4-21,72,60,47,42,39,29,77,50,22,30.08,29.95,29.80,10,10,8,24,7,31,0.05,5,Rain,316
2014-4-22,58,51,43,41,36,31,83,60,36,30.08,30.02,29.92,10,10,4,22,6,27,0.17,7,Rain,308
2014-4-23,62,54,45,48,41,37,89,68,46,30.10,30.03,29.93,10,10,10,13,3,26,T,8,Rain,309
2014-4-24,62,55,48,51,45,36,93,74,54,29.95,29.92,29.90,10,10,5,21,7,27,0.09,7,Rain-Thunderstorm,324
2014-4-25,58,50,42,41,38,32,89,64,39,29.90,29.86,29.80,10,10,7,23,4,28,0.07,7,Rain,347
2014-4-26,59,48,36,40,34,30,92,65,38,29.94,29.89,29.83,10,10,10,14,4,19,0.01,7,Rain,309
2014-4-27,60,52,44,44,40,32,92,64,36,30.20,30.01,29.87,10,10,6,17,6,23,0.07,7,Rain,340
2014-4-28,70,54,37,40,37,31,92,59,26,30.32,30.26,30.21,10,10,10,10,3,13,0.00,3,,353
2014-4-29,83,63,42,49,41,38,82,52,22,30.43,30.32,30.20,10,10,10,9,2,12,0.00,0,,106
2014-4-30,92,69,46,47,36,20,86,47,7,30.27,30.14,29.98,10,10,10,25,5,31,0.00,0,,135